Location: Brantley
(31.5822°N, 86.2569°W)
Time: 02:17:09
(UTC+00:00)

Vanguard 2 - Pass Details

Date: 18 February 2026
Orbit: 553 x 2896 km, 32.9° (Epoch: 13 March)

Event Time Altitude Azimuth Distance (km) Brightness Sun altitude
Rises 16:50:32 0° 275° (W) 2,736 10.2 44.0°
Reaches altitude 10° 16:52:49 10° 262° (W) 1,911 9.6 44.1°
Maximum altitude 16:56:27 28° 202° (SSW) 1,276 9.6 44.4°
Drops below altitude 10° 17:01:08 10° 145° (SE) 2,503 11.2 44.8°
Sets 17:04:36 0° 134° (SE) 3,793 11.7 45.0°
